Regional Weather Roundup
Issued by NWS Mt. Holly, NJ

Home | Current Version | Previous Version | Text Only | Print | Product List | Glossary On
Versions: 1 2 3 4 5 6 7 8 9 10 11 12 13 14 15 16 17 18 19 20 21 22 23 24 25 26 27 28 29 30 31 32 33 34 35 36 37 38 39 40 41 42 43 44 45 46 47 48 49 50
000
ASUS41 KPHI 270512
RWRPHI

REGIONAL WEATHER ROUNDUP
NATIONAL WEATHER SERVICE MOUNT HOLLY NJ
100 AM EDT FRI MAR 27 2015

NOTE:  "FAIR" INDICATES FEW OR NO CLOUDS BELOW 12,000 FEET WITH NO
SIGNIFICANT WEATHER AND/OR OBSTRUCTIONS TO VISIBILITY.

 * = STATION DOES NOT REPORT PRECIPITATION (E.G. RAIN, SNOW, ETC.)
        OR FOG.

NJZ015>026-270600-
SOUTHERN NEW JERSEY

CITY           SKY/WX    TMP DP  RH WIND       PRES   REMARKS
POMONA         CLOUDY    54  52  93 NW7       29.68R
RIO GRANDE*    CLOUDY   N/A N/A N/A NW9G18    29.66R
MILLVILLE      CLOUDY    53  50  89 NW8       29.68F
WRIGHTSTOWN    LGT RAIN  49  49  99 NW9       29.68R
MOUNT HOLLY    LGT RAIN  48  43  82 NW9G20    29.72R
TRENTON        LGT RAIN  46  41  82 NW8       29.70R

$$
NJZ001>014-270600-
NORTHERN NEW JERSEY

CITY           SKY/WX    TMP DP  RH WIND       PRES   REMARKS
SUSSEX         CLOUDY    42  38  85 N3        29.70R
ANDOVER*         N/A     41  38  89 CALM      29.69R
MORRISTOWN     CLOUDY    46  41  81 N7        29.69R
NEWARK         LGT RAIN  46  43  87 N14G22    29.69R
TETERBORO      LGT RAIN  45  39  81 N7        29.68R
CALDWELL       CLOUDY    44  39  82 VRB3      29.70R
SOMERVILLE     CLOUDY    45  40  82 NW5       29.69R
ALLAIRE*       CLOUDY    52  45  76 N8        29.67R
TOMS RIVER*    CLOUDY    54  48  82 NW10      29.68R

$$
PAZ043-044-047-054-055-060>062-066>071-270600-
EASTERN PENNSYLVANIA

CITY           SKY/WX    TMP DP  RH WIND       PRES   REMARKS
PHILADELPHIA   LGT RAIN  47  42  83 NW16      29.72R
NORTH PHILA    LGT RAIN  48  42  80 NW13      29.72F
BLUE BELL      CLOUDY    45  41  87 NW3       29.71F
DOYLESTOWN     CLOUDY    43  41  93 NW6       29.71R
QUAKERTOWN*    CLOUDY    41  39  93 NW5       29.74R
POTTSTOWN      CLOUDY    44  40  85 NW7       29.74R
LANCASTER      LGT RAIN  44  40  85 NW9       29.76R
COATESVILLE    CLOUDY    45  41  87 NW10      29.73F
READING        LGT RAIN  43  38  82 NW8       29.76R
ALLENTOWN      CLOUDY    43  38  82 NW7       29.74R
MOUNT POCONO   CLOUDY    35  33  92 NW18G25   29.68R WCI  24
HAZLETON       CLOUDY    36  36 100 NW14G20   29.73F WCI  27
WILKES BARRE   CLOUDY    39  34  82 N10       29.75F WCI  32

$$
DEZALL-MDZ008-012-015-019-020-270600-
DELAWARE AND EASTERN MARYLAND

CITY           SKY/WX    TMP DP  RH WIND       PRES   REMARKS
WILMINGTON     LGT RAIN  48  45  89 N14G20    29.72S
DOVER          LGT RAIN  52  52 100 W13       29.66R
GEORGETOWN     CLOUDY    58  52  80 VRB7G18   29.70R
EASTON         RAIN      52  52 100 N9        29.77R
PATUXENT       CLOUDY    53  49  86 NW12      29.72R
OCEAN CITY     CLOUDY    54  52  93 MISG      29.69R
WALLOPS ISLAND CLOUDY    52  51  97 S6        29.68F
CAMBRIDGE      CLOUDY    54  50  87 NW13G18   29.71R
SALISBURY      CLOUDY    59  57  93 W7        29.69R

$$
PAZ001-021-NYZ056-072-MDZ011-DCZ001-270600-
OTHER NEARBY LOCATIONS

CITY           SKY/WX    TMP DP  RH WIND       PRES   REMARKS
HARRISBURG     CLOUDY    46  38  73 N10       29.76S
STATE COLLEGE  CLOUDY    39  35  84 NW10      29.80R WCI  32
WILLIAMSPORT   CLOUDY    40  37  89 CALM      29.79S
BINGHAMTON     CLOUDY    32  30  92 NW9       29.73F WCI  24
NEW YORK CITY  LGT RAIN  43  40  89 VRB6      29.70R
BALTIMORE      LGT RAIN  49  41  74 VRB5      29.75R
WASHINGTON DC  LGT RAIN  52  44  74 N12       29.77R

$$


USA.gov is the U.S. government's official web portal to all federal, state and local government web resources and services.